Station PGXA2 - Point Gardner Image indicating link to RSS feed of recent meteorological observations for station PGXA2


Conditions at PGXA2 as of
(10:33 pm AKDT on 06/13/2024)
0633 GMT on 06/14/2024:
     

Click on the graph icon in the table below to see a time series plot of the last five days of that observation.

5-day plot - Wind Direction Wind Direction (WDIR): E ( 90 deg true )
5-day plot - Wind Speed Wind Speed (WSPD): 3 kts
5-day plot - Wind Gust Wind Gust (GST): 5 kts
5-day plot - Air Temperature Air Temperature (ATMP): 50.9 °F
5-day plot - Dew Point Dew Point (DEWP): 47.1 °F
5-day plot - Wind Chill Wind Chill (CHILL): 50.4 °F
5-day plot - Wind Speed at 10 Meters Wind Speed at 10 meters (WSPD10M): 4 kts
5-day plot - Wind Speed at 20 Meters Wind Speed at 20 meters (WSPD20M): 4 kts
5-day plot -  Wind Speed, Wind Gust and Atmospheric Pressure Combined plot of Wind Speed, Gust, and Air Pressure
Previous observations
TIME
(AKDT)
5-day plot - Wind Direction
WDIR
 
5-day plot - Wind Speed
WSPD
kts
5-day plot - Wind Gust
GST
kts
5-day plot - Wave Height
WVHT
ft
5-day plot - Dominant Wave Period
DPD
sec
5-day plot - Average Wave Period
APD
sec
5-day plot - Mean Wave Direction
MWD
 
5-day plot - Atmospheric Pressure
PRES
in
5-day plot - Pressure Tendency
PTDY
in
5-day plot - Air Temperature
ATMP
°F
5-day plot - Water Temperature
WTMP
°F
5-day plot - Dew Point
DEWP
°F
5-day plot - Salinity
SAL
psu
5-day plot - Visibility
VIS
nmi
5-day plot - Tide (above MLLW)
TIDE
ft
2024-06-13 10:23 pm E 3 6------ 50.9- 46.9---
2024-06-13 10:13 pm E 3 5------ 50.9- 46.9---
2024-06-13 10:03 pm E 3 4------ 51.1- 46.8---
2024-06-13 09:53 pm E 2 4------ 51.3- 46.6---
2024-06-13 09:43 pm E 3 5------ 51.3- 46.4---
2024-06-13 09:33 pm E 3 5------ 51.3- 46.2---
2024-06-13 09:23 pm E 2 4------ 51.6- 46.2---
2024-06-13 09:13 pm E 2 4------ 51.8- 46.4---
2024-06-13 09:03 pm E 2 4------ 52.0- 46.4---
2024-06-13 08:53 pm W 2 5------ 51.8- 46.2---
2024-06-13 08:43 pmWNW 2 4------ 51.6- 46.6---
2024-06-13 08:33 pm E 3 5------ 51.6- 46.6---
2024-06-13 08:23 pmESE 3 6------ 51.6- 46.6---
2024-06-13 08:13 pm E 4 7------ 51.8- 46.6---
2024-06-13 08:03 pmENE 3 6------ 52.3- 46.9---
2024-06-13 07:53 pm E 3 6------ 52.9- 46.9---
2024-06-13 07:43 pm E 4 7------ 53.1- 46.6---
2024-06-13 07:33 pm E 4 7------ 53.2- 46.4---
2024-06-13 07:23 pm E 4 7------ 53.2- 46.2---
2024-06-13 07:13 pm E 4 6------ 53.2- 46.0---
2024-06-13 07:03 pm E 4 7------ 53.4- 45.3---
2024-06-13 06:53 pm E 4 7------ 53.8- 45.0---
2024-06-13 06:43 pm E 4 8------ 54.0- 44.2---
2024-06-13 06:33 pm E 4 6------ 54.3- 43.7---
2024-06-13 06:23 pmESE 4 6------ 54.3- 43.7---
2024-06-13 06:13 pm E 5 7------ 54.9- 43.3---
2024-06-13 06:03 pm E 4 7------ 54.5- 45.0---
2024-06-13 05:53 pmESE 4 5------ 54.3- 45.9---
2024-06-13 05:43 pmESE 3 4------ 54.9- 45.7---
2024-06-13 05:33 pmESE 3 5------ 54.9- 45.7---
2024-06-13 05:23 pm E 3 4------ 55.6- 45.5---
2024-06-13 05:13 pm SE 2 4------ 55.9- 45.5---
2024-06-13 05:03 pmWSW 2 4------ 56.1- 46.0---
2024-06-13 04:53 pmSSW 2 4------ 55.8- 45.7---
2024-06-13 04:43 pmSSW 2 4------ 55.4- 46.2---
2024-06-13 04:33 pmESE 2 4------ 54.9- 45.9---
2024-06-13 04:23 pm S 3 4------ 54.3- 45.5---
2024-06-13 04:13 pm SE 4 5------ 55.2- 45.0---
2024-06-13 03:53 pm SE 4 6------ 55.8- 43.3---
2024-06-13 03:43 pmESE 3 5------ 56.1- 43.7---
2024-06-13 03:33 pm S 2 4------ 55.9- 42.6---
2024-06-13 03:23 pmSSE 3 4------ 56.3- 42.3---
2024-06-13 03:13 pm SE 2 4------ 57.4- 43.5---
2024-06-13 03:03 pm SW 2 3------ 56.7- 45.9---
2024-06-13 02:53 pmWSW 2 4------ 56.5- 43.9---
2024-06-13 02:43 pm NW 3 5------ 54.9- 44.6---
2024-06-13 02:33 pmWNW 3 5------ 54.7- 44.4---
2024-06-13 02:23 pm NW 4 5------ 53.8- 46.6---
2024-06-13 02:13 pm NW 4 5------ 53.8- 46.9---
2024-06-13 02:03 pm NW 4 5------ 53.8- 47.3---
2024-06-13 01:53 pm NW 4 5------ 54.0- 46.4---
2024-06-13 01:43 pm NW 5 7------ 53.1- 46.9---
2024-06-13 01:33 pm NW 6 7------ 52.7- 47.8---
2024-06-13 01:23 pm NW 6 7------ 52.5- 47.3---
2024-06-13 01:13 pm NW 5 7------ 52.5- 46.4---
2024-06-13 01:03 pm NW 6 8------ 52.0- 45.5---
2024-06-13 12:53 pm NW 7 8------ 51.1- 46.4---
2024-06-13 12:43 pm NW 6 8------ 51.3- 46.8---
2024-06-13 12:33 pm NW 7 9------ 51.1- 46.0---
2024-06-13 12:23 pm NW 6 8------ 50.9- 45.9---
2024-06-13 12:13 pm NW 7 8------ 50.5- 46.2---
2024-06-13 12:03 pm NW 6 8------ 50.9- 45.7---
2024-06-13 11:53 am NW 7 9------ 50.2- 46.0---
2024-06-13 11:43 am NW 8 9------ 50.2- 45.7---
2024-06-13 11:33 am NW 8 10------ 49.8- 45.9---
2024-06-13 11:23 am NW 8 10------ 49.8- 45.9---
2024-06-13 11:13 amNNW 8 10------ 49.6- 45.7---
2024-06-13 11:03 amNNW 8 10------ 49.6- 45.7---
2024-06-13 10:53 amNNW 9 11------ 49.3- 45.5---
2024-06-13 10:43 amNNW 9 10------ 49.1- 45.5---
2024-06-13 10:33 amNNW 9 10------ 49.1- 45.5---
2024-06-13 10:23 amNNW 8 10------ 48.9- 45.3---
2024-06-13 10:13 amNNW 9 11------ 48.9- 45.5---
2024-06-13 10:03 amNNW 9 12------ 48.7- 45.1---
2024-06-13 09:53 amNNW 9 11------ 48.6- 45.1---
2024-06-13 09:43 amNNW 9 12------ 48.6- 45.3---
2024-06-13 09:33 amNNW 9 11------ 48.4- 45.3---
2024-06-13 09:23 amNNW 10 12------ 48.4- 45.5---
2024-06-13 09:13 amNNW 10 12------ 48.2- 45.3---
2024-06-13 09:03 amNNW 9 11------ 48.0- 45.5---
2024-06-13 08:43 amNNW 8 11------ 47.8- 45.7---
2024-06-13 08:33 amNNW 9 12------ 47.5- 45.5---
2024-06-13 08:23 amNNW 9 11------ 47.3- 45.7---
2024-06-13 08:13 amNNW 9 11------ 47.3- 45.7---
2024-06-13 08:03 amNNW 8 10------ 47.3- 45.5---
2024-06-13 07:53 amNNW 8 10------ 47.1- 45.0---
2024-06-13 07:43 amNNW 7 10------ 46.9- 44.6---
2024-06-13 07:33 amNNW 7 9------ 46.8- 44.2---
2024-06-13 07:23 amNNW 7 9------ 46.6- 43.9---
2024-06-13 07:13 amNNW 7 9------ 46.4- 43.5---
2024-06-13 07:03 amNNW 7 10------ 46.2- 43.5---
2024-06-13 06:53 amNNW 7 9------ 46.2- 43.7---
2024-06-13 06:43 amNNW 7 9------ 46.4- 43.9---
2024-06-13 06:33 amNNW 6 8------ 46.4- 44.2---
2024-06-13 06:23 amNNW 6 8------ 46.4- 44.2---
2024-06-13 06:13 amNNW 7 9------ 46.4- 44.2---
2024-06-13 06:03 amNNW 6 8------ 46.4- 44.2---
2024-06-13 05:53 amNNW 6 9------ 46.4- 43.9---
2024-06-13 05:43 amNNW 5 7------ 46.2- 43.7---
2024-06-13 05:33 amNNW 5 7------ 46.4- 43.7---
2024-06-13 05:23 amNNW 5 7------ 46.4- 43.7---
2024-06-13 05:13 amNNW 5 6------ 46.4- 43.7---
2024-06-13 05:03 amNNW 5 7------ 46.6- 44.1---
2024-06-13 04:53 amNNW 5 7------ 46.6- 44.1---
2024-06-13 04:43 amNNW 5 7------ 46.8- 44.2---
2024-06-13 04:33 amNNW 4 7------ 46.9- 44.1---
2024-06-13 04:23 amNNW 5 7------ 46.9- 43.7---
2024-06-13 04:13 amNNW 4 6------ 47.1- 43.3---
2024-06-13 04:03 amNNW 3 6------ 47.5- 43.0---
2024-06-13 03:53 amNNW 2 4------ 47.7- 42.4---
2024-06-13 03:43 am- 0 2------ 47.7- 42.1---
2024-06-13 03:33 am N 1 3------ 47.3- 42.3---
2024-06-13 03:23 am N 1 3------ 46.8- 41.9---
2024-06-13 03:13 am- 0 2------ 46.8- 41.9---
2024-06-13 03:03 amENE 1 2------ 46.8- 42.1---
2024-06-13 02:53 am- 0 2------ 46.9- 42.1---
2024-06-13 02:43 amENE 1 3------ 46.9- 42.1---
2024-06-13 02:33 amENE 1 2------ 47.3- 42.3---
2024-06-13 02:23 am NE 1 2------ 47.7- 42.1---
2024-06-13 02:13 am NE 1 2------ 47.8- 42.1---
2024-06-13 02:03 am NE 1 3------ 48.2- 42.6---
2024-06-13 01:53 am NE 2 3------ 48.2- 42.4---
2024-06-13 01:43 am NE 2 3------ 48.4- 42.4---
2024-06-13 01:23 am E 2 4------ 48.7- 42.3---
2024-06-13 01:13 am E 3 5------ 48.9- 42.3---
2024-06-13 01:03 amENE 2 4------ 49.3- 42.3---
2024-06-13 12:53 am E 2 4------ 49.5- 42.4---
2024-06-13 12:43 amENE 2 4------ 49.3- 42.1---
2024-06-13 12:33 am NE 1 4------ 49.1- 42.1---
2024-06-13 12:23 am NE 1 3------ 49.5- 42.3---
2024-06-13 12:13 am- 0 4------ 49.6- 42.4---
2024-06-13 12:03 am E 1 3------ 49.5- 42.4---
2024-06-12 11:53 pm E 2 4------ 49.5- 42.8---
2024-06-12 11:43 pm E 2 6------ 49.6- 43.0---
2024-06-12 11:33 pmESE 2 6------ 49.5- 43.3---
2024-06-12 11:23 pmNNE 1 4------ 49.3- 43.7---
2024-06-12 11:13 pmSSE 1 4------ 49.5- 43.7---
2024-06-12 11:03 pmENE 2 6------ 49.1- 43.7---
2024-06-12 10:53 pmENE 2 5------ 48.9- 44.2---
2024-06-12 10:43 pmNNE 2 5------ 48.9- 44.6---
2024-06-12 10:33 pm E 4 7------ 48.9- 45.0---
2024-06-12 10:23 pm E 6 9------ 48.9- 44.6---
2024-06-12 10:13 pm E 6 9------ 48.9- 45.0---
2024-06-12 10:03 pm E 5 7------ 48.9- 45.1---
2024-06-12 09:53 pmESE 5 7------ 49.1- 45.3---